Miscellaneous Local Product
Issued by NWS North Platte, NE

Home | Current Version | Previous Version | Text Only | Print | Product List | Glossary On
Versions: 1 2 3 4 5 6 7 8 9 10 11 12 13 14 15 16 17 18 19 20 21 22 23 24 25 26 27 28 29 30 31 32 33 34 35 36 37 38 39 40 41 42 43 44 45 46 47 48 49 50
000
AXUS43 KLBF 022110
MISLBF


WESTERN AND NORTH CENTRAL NEBRASKA HOURLY WEATHER ROUNDUP
NATIONAL WEATHER SERVICE NORTH PLATTE NE
400 PM CDT WED SEP 02 2015

NOTE: "FAIR" INDICATES FEW OR NO CLOUDS BELOW 12,000 FEET WITH NO
SIGNIFICANT WEATHER AND/OR OBSTRUCTIONS TO VISIBILITY.

NOTE: STATIONS NOT REPORTING VARIABLES SUCH AS SKY/WEATHER OR
PRESSURE ARE PROVIDED BY THE NEBRASKA DEPARTMENT OF
ROADS...RAWS...AND APRS NETWORKS...AND ARE NOT UNDER
NATIONAL WEATHER SERVICE QUALITY CONTROL.

...OBSERVATIONS IN AND NEAR THE EASTERN PANHANDLE OF NEBRASKA...

CITY           SKY/WX    TMP DP  RH WIND       PRES   REMARKS
PINE RIDGE     FAIR      97  45  16 SW7       29.85F HX  93
CHADRON        FAIR      98  44  15 S7        29.83F HX  94
ALLIANCE       FAIR      95  40  14 SW10G21   29.91F HX  91
SIDNEY         FAIR      91  41  17 SE8       29.96F
CRESCENT LAKE    N/A     95  45  17 SW9         N/A  HX  91
BIG SPRINGS      N/A     95  57  27 S7          N/A  HX  93
$$

...OBSERVATIONS IN NORTH CENTRAL NEBRASKA...

CITY           SKY/WX    TMP DP  RH WIND       PRES   REMARKS
VALENTINE      FAIR     101  44  14 S6        29.80F HX  97
THEDFORD       FAIR     100  47  16 S7        29.85F HX  97
AINSWORTH      FAIR     100  50  18 S14       29.82F HX  96
O`NEILL        FAIR      95  61  32 SE17      29.82F HX  95
ORD            FAIR      95  61  32 SE17      29.81F HX  95
BROKEN BOW     FAIR      97  54  23 S15G24    29.85F HX  95
SPRINGVIEW       N/A    101  55  21 S8G15       N/A  HX  99
SARGENT          N/A     96  60  30 SE3         N/A  HX  96
CHAMBERS         N/A     95  65  36 E10         N/A  HX  97
EWING            N/A     90  73  57 S7G14       N/A  HX  98
$$

...OBSERVATIONS IN SOUTHWEST NEBRASKA AND FAR NORTHEAST COLORADO...

CITY           SKY/WX    TMP DP  RH WIND       PRES   REMARKS
WRAY           CLOUDY    98  40  13 SE15G30   29.91F HX  93
HOLYOKE        FAIR      95  54  24 SW5       29.92F HX  93
IMPERIAL       FAIR      97  50  20 SE12G17   29.88F HX  94
OGALLALA       FAIR      96  50  20 S14       29.88F HX  93
NORTH PLATTE   FAIR      97  53  22 S9G18     29.85F HX  94
MCCOOK         FAIR      99  52  20 SE13      29.84F HX  96
LEXINGTON      FAIR      93  63  37 SE13      29.86F HX  94
PAXTON           N/A     94  60  32 S6          N/A  HX  94
BRADY            N/A     95  65  36 CALM        N/A  HX  97
CALLAWAY         N/A     90  69  50 S12         N/A  HX  94
$$

...OBSERVATIONS IN CENTRAL LINCOLN COUNTY AREA...

CITY           SKY/WX    TMP DP  RH WIND       PRES   REMARKS
N.P. AIRPORT   FAIR      97  53  22 S9G18     29.85F HX  94
N.P. DOWNTOWN    N/A     97  55  24 SE3G12      N/A  HX  95
N.P. SOUTHEAST   N/A     97  56  25 S6          N/A  HX  95
N.P. HILLCREST   N/A     96  55  25 S10         N/A  HX  94
$$

...SOME OBSERVATIONS FROM AROUND THE REGION...

CITY           SKY/WX    TMP DP  RH WIND       PRES   REMARKS
DENVER         FAIR      90  33  13 E9        30.04F
LARAMIE        PTSUNNY   77  36  22 NW7       30.17F
CHEYENNE       FAIR      84  35  17 W3        30.08F
SCOTTSBLUFF    FAIR      94  40  15 SW6       29.91F HX  90
RAPID CITY     FAIR      97  50  20 NE5       29.78F HX  94
PIERRE         FAIR      95  58  28 SE13      29.72F HX  94
WINNER         FAIR     100  55  22 S15       29.76F HX  98
SIOUX FALLS    PTSUNNY   84  73  69 S15       29.81F HX  90
OMAHA          FAIR      89  69  51 S18       29.85F HX  93
GRAND ISLAND   FAIR      95  64  35 S16       29.84F HX  97
KANSAS CITY    FAIR      89  67  47 S20G26    29.94F HX  92
WICHITA        FAIR      94  63  35 S14G30    29.91F HX  95
HAYS           FAIR     100  57  23 S24G30    29.82F HX  99
LIBERAL        FAIR      99  54  22 S22G29    29.92F HX  96
GOODLAND       FAIR      96  47  18 SW12      29.91F HX  92
$$



USA.gov is the U.S. government's official web portal to all federal, state and local government web resources and services.